Regional Weather Roundup
Issued by NWS

Home | Current Version | Previous Version | Text Only | Print | Product List | Glossary On
Versions: 1 2 3 4 5 6 7 8 9 10 11 12 13 14 15 16 17 18 19 20 21 22 23 24 25 26 27 28 29 30 31 32 33 34 35 36 37 38 39 40 41 42 43 44 45 46 47 48 49 50
000
ASUS44 KBMX 020210
RWRAL

ALABAMA REGIONAL WEATHER ROUNDUP
NATIONAL WEATHER SERVICE BIRMINGHAM AL
900 PM CDT FRI AUG 01 2014

NOTE: "FAIR" INDICATES FEW OR NO CLOUDS BELOW 12,000 FEET
WITH NO SIGNIFICANT WEATHER AND/OR OBSTRUCTIONS TO VISIBILITY.

THE REMARK "TC" DENOTES TEMPERATURE IN DEGREES CELSIUS.

ALZ001>011-014-016>018-020-020300-
NORTH ALABAMA

CITY           SKY/WX    TMP DP  RH WIND       PRES   REMARKS
MUSCLE SHOALS  CLEAR     73  66  78 CALM      30.03S
HUNTSVILLE     PTCLDY    74  66  76 CALM      30.03R
DECATUR        CLEAR     71  67  87 CALM      30.03R
HALEYVILLE     FAIR      71  69  93 CALM      30.06R
GADSDEN        PTCLDY    73  66  78 CALM      30.02R
$$

ALZ012-013-022-023-030>036-040>044-020300-
WEST CENTRAL ALABAMA

CITY           SKY/WX    TMP DP  RH WIND       PRES   REMARKS
TUSCALOOSA     CLOUDY    80  70  71 CALM      29.99R
$$

ALZ015-024>027-033>036-040>044-020300-
CENTRAL ALABAMA

CITY           SKY/WX    TMP DP  RH WIND       PRES   REMARKS
BIRMINGHAM     PTCLDY    80  66  62 NE3       30.04R
MONTGOMERY     MOCLDY    77  71  82 CALM      30.00S
SHELBY CO ARPT PTCLDY    75  69  81 CALM      30.02R
MAXWELL AFB    MOCLDY    77  72  86 CALM      30.00R
GREENVILLE     FAIR      77  71  82 CALM      30.00R
$$

ALZ019-021-028-029-037-038-045>048-020300-
EAST CENTRAL ALABAMA

CITY           SKY/WX    TMP DP  RH WIND       PRES   REMARKS
ANNISTON       CLOUDY    77  67  71 E5        30.03R
ALEXANDER CITY CLOUDY    78  72  81 CALM      30.04R
AUBURN         CLOUDY    73  66  78 NE8       30.06R
$$

ALZ051>064-020300-
SOUTHWEST ALABAMA

CITY           SKY/WX    TMP DP  RH WIND       PRES   REMARKS
MOBILE         CLOUDY    76  70  82 N3        29.99R
BROOKLEY FIELD CLOUDY    76  71  85 NW3       29.98S
EVERGREEN      PTCLDY    77  71  82 CALM      29.99R
$$

ALZ049-050-065>069-020300-
SOUTHEAST ALABAMA

CITY           SKY/WX    TMP DP  RH WIND       PRES   REMARKS
DOTHAN         MOCLDY    77  71  82 NE3       30.03R
OZARK          MOCLDY    78  71  81 NE6       29.99R
TROY           MOCLDY    74  70  87 CALM      30.01R
EUFAULA        FAIR      77  72  84 CALM      29.99R
$$



USA.gov is the U.S. government's official web portal to all federal, state and local government web resources and services.